Regional Weather Roundup
Issued by NWS

Home | Current Version | Previous Version | Graphics & Text | Print | Product List | Glossary On
Versions: 1 2 3 4 5 6 7 8 9 10 11 12 13 14 15 16 17 18 19 20 21 22 23 24 25 26 27 28 29 30 31 32 33 34 35 36 37 38 39 40 41 42 43 44 45 46 47 48 49 50
564
ASUS44 KLIX 171605
RWRLA
LOUISIANA WEATHER ROUNDUP
NATIONAL WEATHER SERVICE NEW ORLEANS LA
1100 AM CDT WED SEP 17 2014

NOTE: "FAIR" INDICATES FEW OR NO CLOUDS BELOW 12,000 FEET WITH NO
      SIGNIFICANT WEATHER AND/OR OBSTRUCTIONS TO VISIBILITY.
      SKY/WX - SKY CONDITION AND SIGNIFICANT WEATHER.
      TMP - AIR TEMPERATURE.    DP   - DEWPOINT TEMPERATURE.
      RH  - RELATIVE HUMIDITY.  PRES - PRESSURE.
      HX  - HEAT INDEX.         WCI  - WIND CHILL INDEX.

*  THESE STATIONS ARE NOT NWS OR FAA STATIONS AND ARE NOT UNDER
   NWS QUALITY CONTROL.

LAZ040-048-061>063-065-066-069-171700-
SOUTHEAST LOUISIANA

CITY           SKY/WX    TMP DP  RH WIND       PRES   REMARKS
N.O. AUDUBON     N/A     91  78  66 MISG        N/A  HX 105
N.O. INTL ARPT PTSUNNY   84  72  67 N6        29.98S
N.O. LAKEFRONT MOSUNNY   83  72  69 N6        29.98F
N.O. DOWNTOWN* PTSUNNY   82  70  65 NW3       29.98S
SLIDELL        MOSUNNY   82  72  71 NE5       29.98S
BATON ROUGE    PTSUNNY   80  72  76 CALM      30.00S
BOOTHVILLE     SUNNY     85  74  69 CALM      29.98S
BELLE CHASSE   PTSUNNY   84  71  65 NE3       29.97S
BOGALUSA*      FAIR      82  72  71 CALM      30.00S
GALLIANO*      NOT AVBL
NEW ROADS*     FAIR      79  73  81 CALM      30.00S
GONZALES*      CLOUDY    79  77  92 CALM      29.99S
HAMMOND*       MOSUNNY   84  72  65 CALM      30.00F
HOUMA*         MOSUNNY   84  70  61 N3        29.99S
PORT FOURCHON* CLOUDY    84  73  70 CALM      30.01F

$$

LAZ041-044-053-054-171700-
SOUTHWEST LOUISIANA

CITY           SKY/WX    TMP DP  RH WIND       PRES   REMARKS
LAKE CHARLES   SUNNY     83  74  74 VRB5      29.98S
LAFAYETTE      PTSUNNY   83  75  77 VRB3      29.99S
PATTERSON      SUNNY     82  73  74 NE5       30.02S
SALT POINT       N/A     85  75  72 VRB6      29.99S
NEW IBERIA     SUNNY     83  74  74 SE5       30.00S
CHENAULT AIRPK PTSUNNY   81  73  78 CALM      29.99S

$$

LAZ027-028-171700-
CENTRAL LOUISIANA

CITY           SKY/WX    TMP DP  RH WIND       PRES   REMARKS
FORT POLK      CLOUDY    77  73  87 CALM      30.00S
ALEXANDRIA INT CLOUDY    75  73  93 CALM      29.98S
ALEXANDRIA     PTSUNNY   82  71  69 CALM      29.99S

$$

LAZ001-002-171700-
NORTHWEST LOUISIANA

CITY           SKY/WX    TMP DP  RH WIND       PRES   REMARKS
SHREVEPORT     PTSUNNY   84  72  67 CALM      29.98S
BARKSDALE AFB  PTSUNNY   84  72  67 SE5       29.99R
DTN SHREVEPORT PTSUNNY   84  72  67 VRB3      29.98S

$$

LAZ014-016-171700-
NORTHEAST LOUISIANA

CITY           SKY/WX    TMP DP  RH WIND       PRES   REMARKS
MONROE         SUNNY     82  71  69 CALM      30.00S
TALLULAH       SUNNY     85  69  58 E5        29.99S

$$




USA.gov is the U.S. government's official web portal to all federal, state and local government web resources and services.